Time,TemperatureF,DewpointF,PressureIn,WindDirection,WindDirectionDegrees,WindSpeedMPH,WindSpeedGustMPH,Humidity,HourlyPrecipIn,Conditions,Clouds,dailyrainin,SoftwareType,DateUTC
2014-01-01 00:00:00,69.3,62.8,29.96,NE,49,2.0,4.0,80,0.00,,,0.00,meteohub,2014-01-01 10:00:00,
2014-01-01 00:05:00,68.9,62.4,29.96,NE,49,3.0,3.0,80,0.00,,,0.00,meteohub,2014-01-01 10:05:00,
2014-01-01 00:10:00,68.9,62.8,29.96,East,86,3.0,4.0,81,0.00,,,0.00,meteohub,2014-01-01 10:10:00,
2014-01-01 00:15:00,68.7,62.6,29.96,East,89,2.0,4.0,81,0.00,,,0.00,meteohub,2014-01-01 10:15:00,
2014-01-01 00:20:00,68.7,62.6,29.96,East,92,1.0,4.0,81,0.00,,,0.00,meteohub,2014-01-01 10:20:00,
2014-01-01 00:25:00,68.9,62.8,29.96,East,89,2.0,4.0,81,0.00,,,0.00,meteohub,2014-01-01 10:25:00,
2014-01-01 00:30:00,69.1,62.6,29.96,East,81,1.0,3.0,80,0.00,,,0.00,meteohub,2014-01-01 10:30:00,
2014-01-01 00:35:00,68.7,62.6,29.95,East,93,2.0,3.0,81,0.00,,,0.00,meteohub,2014-01-01 10:35:00,
2014-01-01 00:40:00,68.5,62.4,29.95,ENE,70,3.0,3.0,81,0.00,,,0.00,meteohub,2014-01-01 10:40:00,
2014-01-01 00:45:00,68.4,62.6,29.95,East,91,2.0,3.0,82,0.00,,,0.00,meteohub,2014-01-01 10:45:00,
2014-01-01 00:50:00,68.2,62.8,29.95,East,86,2.0,3.0,83,0.00,,,0.00,meteohub,2014-01-01 10:50:00,
2014-01-01 00:55:00,67.8,62.8,29.95,ESE,102,2.0,3.0,84,0.00,,,0.00,meteohub,2014-01-01 10:55:00,
2014-01-01 01:00:00,67.6,62.6,29.95,ESE,108,2.0,3.0,84,0.00,,,0.00,meteohub,2014-01-01 11:00:00,
2014-01-01 01:06:00,67.8,62.8,29.95,East,93,2.0,3.0,84,0.00,,,0.00,meteohub,2014-01-01 11:06:00,
2014-01-01 01:11:00,68.4,63.0,29.94,East,84,3.0,3.0,83,0.00,,,0.00,meteohub,2014-01-01 11:11:00,
2014-01-01 01:16:00,68.7,63.0,29.94,ESE,103,3.0,4.0,82,0.00,,,0.00,meteohub,2014-01-01 11:16:00,
2014-01-01 01:21:00,68.7,63.0,29.95,NW,319,2.0,4.0,82,0.00,,,0.00,meteohub,2014-01-01 11:21:00,
2014-01-01 01:26:00,68.4,62.6,29.94,NNE,30,2.0,4.0,82,0.00,,,0.00,meteohub,2014-01-01 11:26:00,
2014-01-01 01:31:00,68.4,63.0,29.94,NNE,25,2.0,4.0,83,0.00,,,0.00,meteohub,2014-01-01 11:31:00,
2014-01-01 01:36:00,68.7,63.3,29.94,NE,50,2.0,4.0,83,0.00,,,0.00,meteohub,2014-01-01 11:36:00,
2014-01-01 01:41:00,68.9,62.8,29.94,ENE,77,2.0,4.0,81,0.00,,,0.00,meteohub,2014-01-01 11:41:00,
2014-01-01 01:46:00,68.4,62.6,29.94,ENE,75,3.0,3.0,82,0.00,,,0.00,meteohub,2014-01-01 11:46:00,
2014-01-01 01:51:00,68.2,62.8,29.94,ENE,68,4.0,4.0,83,0.00,,,0.00,meteohub,2014-01-01 11:51:00,
2014-01-01 01:56:00,67.8,62.1,29.94,ESE,104,3.0,4.0,82,0.00,,,0.00,meteohub,2014-01-01 11:56:00,
2014-01-01 02:01:00,67.6,62.2,29.94,East,82,2.0,4.0,83,0.00,,,0.00,meteohub,2014-01-01 12:01:00,
2014-01-01 02:06:00,67.8,62.8,29.93,East,89,1.0,4.0,84,0.00,,,0.00,meteohub,2014-01-01 12:06:00,
2014-01-01 02:11:00,67.8,62.4,29.93,East,94,2.0,3.0,83,0.00,,,0.00,meteohub,2014-01-01 12:11:00,
2014-01-01 02:16:00,68.0,62.6,29.93,ENE,77,0.0,4.0,83,0.00,,,0.00,meteohub,2014-01-01 12:16:00,
2014-01-01 02:21:00,68.0,62.6,29.93,ENE,77,2.0,4.0,83,0.00,,,0.00,meteohub,2014-01-01 12:21:00,
2014-01-01 02:27:00,67.8,62.1,29.92,East,98,2.0,4.0,82,0.00,,,0.00,meteohub,2014-01-01 12:27:00,
2014-01-01 02:32:00,67.6,61.9,29.92,ENE,77,4.0,4.0,82,0.00,,,0.00,meteohub,2014-01-01 12:32:00,
2014-01-01 02:37:00,67.6,61.9,29.92,East,94,2.0,4.0,82,0.00,,,0.00,meteohub,2014-01-01 12:37:00,
2014-01-01 02:42:00,67.6,62.2,29.92,East,84,4.0,5.0,83,0.00,,,0.00,meteohub,2014-01-01 12:42:00,
2014-01-01 02:47:00,67.8,62.1,29.92,ESE,103,2.0,5.0,82,0.00,,,0.00,meteohub,2014-01-01 12:47:00,
2014-01-01 02:52:00,68.0,62.2,29.92,East,100,3.0,5.0,82,0.00,,,0.00,meteohub,2014-01-01 12:52:00,
2014-01-01 02:57:00,68.2,62.4,29.92,East,100,3.0,4.0,82,0.00,,,0.00,meteohub,2014-01-01 12:57:00,
2014-01-01 03:02:00,68.2,62.4,29.92,East,91,2.0,4.0,82,0.00,,,0.00,meteohub,2014-01-01 13:02:00,
2014-01-01 03:07:00,68.2,62.4,29.92,East,82,3.0,4.0,82,0.00,,,0.00,meteohub,2014-01-01 13:07:00,
2014-01-01 03:12:00,68.4,62.6,29.92,East,80,2.0,4.0,82,0.00,,,0.00,meteohub,2014-01-01 13:12:00,
2014-01-01 03:17:00,68.5,62.8,29.92,East,86,2.0,4.0,82,0.00,,,0.00,meteohub,2014-01-01 13:17:00,
2014-01-01 03:22:00,68.4,62.6,29.92,East,98,2.0,4.0,82,0.00,,,0.00,meteohub,2014-01-01 13:22:00,
2014-01-01 03:27:00,68.4,62.6,29.91,East,86,2.0,4.0,82,0.00,,,0.00,meteohub,2014-01-01 13:27:00,
2014-01-01 03:32:00,68.2,62.8,29.91,East,86,2.0,3.0,83,0.00,,,0.00,meteohub,2014-01-01 13:32:00,
2014-01-01 03:37:00,68.2,62.4,29.91,East,82,2.0,3.0,82,0.00,,,0.00,meteohub,2014-01-01 13:37:00,
2014-01-01 03:42:00,68.0,62.2,29.91,East,88,2.0,3.0,82,0.00,,,0.00,meteohub,2014-01-01 13:42:00,
2014-01-01 03:47:00,68.0,61.9,29.91,ENE,72,1.0,4.0,81,0.00,,,0.00,meteohub,2014-01-01 13:47:00,
2014-01-01 03:52:00,68.0,61.9,29.91,ENE,78,1.0,4.0,81,0.00,,,0.00,meteohub,2014-01-01 13:52:00,
2014-01-01 03:57:00,68.0,61.9,29.91,ENE,57,0.0,3.0,81,0.00,,,0.00,meteohub,2014-01-01 13:57:00,
2014-01-01 04:02:00,67.8,61.3,29.91,East,96,0.0,3.0,80,0.00,,,0.00,meteohub,2014-01-01 14:02:00,
2014-01-01 04:07:00,67.8,61.3,29.91,East,90,1.0,3.0,80,0.00,,,0.00,meteohub,2014-01-01 14:07:00,
2014-01-01 04:12:00,68.2,61.3,29.91,East,86,1.0,3.0,79,0.00,,,0.00,meteohub,2014-01-01 14:12:00,
2014-01-01 04:17:00,68.0,61.2,29.91,ENE,77,2.0,3.0,79,0.00,,,0.00,meteohub,2014-01-01 14:17:00,
2014-01-01 04:22:00,68.2,61.3,29.91,East,95,0.0,3.0,79,0.00,,,0.00,meteohub,2014-01-01 14:22:00,
2014-01-01 04:27:00,68.0,60.8,29.91,ENE,78,1.0,3.0,78,0.00,,,0.00,meteohub,2014-01-01 14:27:00,
2014-01-01 04:32:00,68.0,60.4,29.91,East,82,0.0,3.0,77,0.00,,,0.00,meteohub,2014-01-01 14:32:00,
2014-01-01 04:37:00,68.2,60.6,29.91,ENE,71,2.0,2.0,77,0.00,,,0.00,meteohub,2014-01-01 14:37:00,
2014-01-01 04:42:00,68.2,60.3,29.92,ENE,75,1.0,3.0,76,0.00,,,0.00,meteohub,2014-01-01 14:42:00,
2014-01-01 04:47:00,67.8,60.3,29.92,East,79,2.0,3.0,77,0.00,,,0.00,meteohub,2014-01-01 14:47:00,
2014-01-01 04:52:00,67.5,60.4,29.92,ENE,73,3.0,4.0,78,0.00,,,0.00,meteohub,2014-01-01 14:52:00,
2014-01-01 04:57:00,67.3,60.3,29.92,East,85,1.0,4.0,78,0.00,,,0.00,meteohub,2014-01-01 14:57:00,
2014-01-01 05:02:00,66.9,60.3,29.92,East,88,2.0,4.0,79,0.00,,,0.00,meteohub,2014-01-01 15:02:00,
2014-01-01 05:07:00,67.1,60.4,29.92,ESE,103,2.0,4.0,79,0.00,,,0.00,meteohub,2014-01-01 15:07:00,
2014-01-01 05:12:00,67.3,60.6,29.92,ENE,69,1.0,4.0,79,0.00,,,0.00,meteohub,2014-01-01 15:12:00,
2014-01-01 05:17:00,67.3,60.6,29.92,East,80,3.0,4.0,79,0.00,,,0.00,meteohub,2014-01-01 15:17:00,
2014-01-01 05:22:00,67.5,60.8,29.92,ENE,74,1.0,4.0,79,0.00,,,0.00,meteohub,2014-01-01 15:22:00,
2014-01-01 05:27:00,67.5,60.8,29.92,East,86,1.0,4.0,79,0.00,,,0.00,meteohub,2014-01-01 15:27:00,
2014-01-01 05:32:00,67.5,61.2,29.92,East,79,2.0,4.0,80,0.00,,,0.00,meteohub,2014-01-01 15:32:00,
2014-01-01 05:37:00,67.5,61.2,29.92,ENE,73,2.0,4.0,80,0.00,,,0.00,meteohub,2014-01-01 15:37:00,
2014-01-01 05:42:00,67.5,61.2,29.92,ENE,71,2.0,4.0,80,0.00,,,0.00,meteohub,2014-01-01 15:42:00,
2014-01-01 05:47:00,67.3,61.0,29.92,ENE,70,2.0,4.0,80,0.00,,,0.00,meteohub,2014-01-01 15:47:00,
2014-01-01 05:52:00,67.1,60.8,29.92,ENE,72,2.0,4.0,80,0.00,,,0.00,meteohub,2014-01-01 15:52:00,
2014-01-01 05:57:00,66.9,60.6,29.92,ENE,71,2.0,4.0,80,0.00,,,0.00,meteohub,2014-01-01 15:57:00,
2014-01-01 06:02:00,67.1,61.2,29.92,ENE,71,1.0,3.0,81,0.00,,,0.00,meteohub,2014-01-01 16:02:00,
2014-01-01 06:07:00,67.1,61.2,29.92,ENE,71,1.0,3.0,81,0.00,,,0.00,meteohub,2014-01-01 16:07:00,
2014-01-01 06:12:00,66.9,61.0,29.92,ENE,74,3.0,3.0,81,0.00,,,0.00,meteohub,2014-01-01 16:12:00,
2014-01-01 06:17:00,67.3,61.2,29.92,ENE,75,2.0,3.0,81,0.00,,,0.00,meteohub,2014-01-01 16:17:00,
2014-01-01 06:22:00,67.3,61.2,29.92,ENE,68,2.0,3.0,81,0.00,,,0.00,meteohub,2014-01-01 16:22:00,
2014-01-01 06:27:00,67.5,61.3,29.92,ESE,109,3.0,3.0,81,0.00,,,0.00,meteohub,2014-01-01 16:27:00,
2014-01-01 06:32:00,67.6,61.5,29.93,ENE,60,3.0,4.0,81,0.00,,,0.00,meteohub,2014-01-01 16:32:00,
2014-01-01 06:37:00,67.8,61.7,29.93,ENE,70,2.0,4.0,81,0.00,,,0.00,meteohub,2014-01-01 16:37:00,
2014-01-01 06:42:00,68.2,62.1,29.93,ENE,69,2.0,4.0,81,0.00,,,0.00,meteohub,2014-01-01 16:42:00,
2014-01-01 06:47:00,68.2,62.1,29.93,East,86,2.0,3.0,81,0.00,,,0.00,meteohub,2014-01-01 16:47:00,
2014-01-01 06:52:00,68.2,62.1,29.93,East,92,0.0,4.0,81,0.00,,,0.00,meteohub,2014-01-01 16:52:00,
2014-01-01 06:57:00,68.2,62.1,29.94,ENE,68,1.0,4.0,81,0.00,,,0.00,meteohub,2014-01-01 16:57:00,
2014-01-01 07:02:00,68.2,62.1,29.94,ENE,70,1.0,3.0,81,0.00,,,0.00,meteohub,2014-01-01 17:02:00,
2014-01-01 07:07:00,68.2,62.1,29.94,ENE,68,3.0,3.0,81,0.00,,,0.00,meteohub,2014-01-01 17:07:00,
2014-01-01 07:12:00,68.4,62.6,29.94,ENE,71,2.0,3.0,82,0.00,,,0.00,meteohub,2014-01-01 17:12:00,
2014-01-01 07:17:00,68.4,62.6,29.94,ENE,78,2.0,3.0,82,0.00,,,0.00,meteohub,2014-01-01 17:17:00,
2014-01-01 07:22:00,68.5,62.8,29.94,ENE,77,3.0,3.0,82,0.00,,,0.00,meteohub,2014-01-01 17:22:00,
2014-01-01 07:27:00,68.5,63.1,29.94,East,86,1.0,4.0,83,0.00,,,0.00,meteohub,2014-01-01 17:27:00,
2014-01-01 07:32:00,68.5,62.8,29.94,East,81,0.0,4.0,82,0.00,,,0.00,meteohub,2014-01-01 17:32:00,
2014-01-01 07:37:00,68.5,62.8,29.95,East,96,1.0,4.0,82,0.00,,,0.00,meteohub,2014-01-01 17:37:00,
2014-01-01 07:42:00,68.5,62.8,29.95,ENE,72,2.0,3.0,82,0.00,,,0.00,meteohub,2014-01-01 17:42:00,
2014-01-01 07:47:00,68.4,62.2,29.95,East,96,2.0,3.0,81,0.00,,,0.00,meteohub,2014-01-01 17:47:00,
2014-01-01 07:52:00,68.7,62.6,29.95,East,86,2.0,3.0,81,0.00,,,0.00,meteohub,2014-01-01 17:52:00,
2014-01-01 07:57:00,69.1,63.3,29.95,East,85,2.0,3.0,82,0.00,,,0.00,meteohub,2014-01-01 17:57:00,
2014-01-01 08:02:00,69.6,63.9,29.95,NE,46,2.0,3.0,82,0.00,,,0.00,meteohub,2014-01-01 18:02:00,
2014-01-01 08:07:00,70.2,64.0,29.95,NE,47,2.0,3.0,81,0.00,,,0.00,meteohub,2014-01-01 18:07:00,
2014-01-01 08:12:00,71.1,64.6,29.95,NE,40,2.0,3.0,80,0.00,,,0.00,meteohub,2014-01-01 18:12:00,
2014-01-01 08:17:00,71.8,64.9,29.95,ENE,57,2.0,4.0,79,0.00,,,0.00,meteohub,2014-01-01 18:17:00,
2014-01-01 08:22:00,72.3,65.1,29.95,NE,56,4.0,6.0,78,0.00,,,0.00,meteohub,2014-01-01 18:22:00,
2014-01-01 08:27:00,72.7,65.1,29.96,NE,46,2.0,6.0,77,0.00,,,0.00,meteohub,2014-01-01 18:27:00,
2014-01-01 08:32:00,73.0,64.9,29.96,ENE,68,1.0,5.0,76,0.00,,,0.00,meteohub,2014-01-01 18:32:00,
2014-01-01 08:37:00,73.8,65.7,29.96,ENE,57,1.0,5.0,76,0.00,,,0.00,meteohub,2014-01-01 18:37:00,
2014-01-01 08:42:00,74.1,66.0,29.96,ENE,64,0.0,5.0,76,0.00,,,0.00,meteohub,2014-01-01 18:42:00,
2014-01-01 08:47:00,74.7,66.6,29.96,NE,46,0.0,3.0,76,0.00,,,0.00,meteohub,2014-01-01 18:47:00,
2014-01-01 08:52:00,74.8,66.4,29.96,NW,315,1.0,4.0,75,0.00,,,0.00,meteohub,2014-01-01 18:52:00,
2014-01-01 08:57:00,74.8,66.4,29.96,NW,314,1.0,4.0,75,0.00,,,0.00,meteohub,2014-01-01 18:57:00,
2014-01-01 09:02:00,75.0,66.6,29.97,NE,56,0.0,4.0,75,0.00,,,0.00,meteohub,2014-01-01 19:02:00,
2014-01-01 09:07:00,75.4,66.9,29.97,NNW,339,0.0,4.0,75,0.00,,,0.00,meteohub,2014-01-01 19:07:00,
2014-01-01 09:12:00,75.6,67.1,29.97,NNE,18,1.0,4.0,75,0.00,,,0.00,meteohub,2014-01-01 19:12:00,
2014-01-01 09:17:00,75.4,66.9,29.97,WNW,291,2.0,3.0,75,0.00,,,0.00,meteohub,2014-01-01 19:17:00,
2014-01-01 09:22:00,75.6,67.5,29.97,NNW,328,2.0,3.0,76,0.00,,,0.00,meteohub,2014-01-01 19:22:00,
2014-01-01 09:27:00,75.6,67.1,29.97,WNW,295,4.0,4.0,75,0.00,,,0.00,meteohub,2014-01-01 19:27:00,
2014-01-01 09:32:00,75.7,67.6,29.97,WNW,294,3.0,5.0,76,0.00,,,0.00,meteohub,2014-01-01 19:32:00,
2014-01-01 09:37:00,75.6,67.5,29.97,WNW,290,5.0,5.0,76,0.00,,,0.00,meteohub,2014-01-01 19:37:00,
2014-01-01 09:42:00,75.6,67.8,29.97,West,276,1.0,5.0,77,0.00,,,0.00,meteohub,2014-01-01 19:42:00,
2014-01-01 09:47:00,75.7,67.6,29.97,NW,306,1.0,5.0,76,0.00,,,0.00,meteohub,2014-01-01 19:47:00,
2014-01-01 09:52:00,75.7,68.0,29.97,NW,304,1.0,5.0,77,0.00,,,0.00,meteohub,2014-01-01 19:52:00,
2014-01-01 09:57:00,75.7,68.0,29.97,WSW,252,4.0,5.0,77,0.00,,,0.00,meteohub,2014-01-01 19:57:00,
2014-01-01 10:02:00,75.7,68.4,29.97,WNW,297,4.0,5.0,78,0.00,,,0.00,meteohub,2014-01-01 20:02:00,
2014-01-01 10:07:00,75.9,67.8,29.97,West,259,3.0,5.0,76,0.00,,,0.00,meteohub,2014-01-01 20:07:00,
2014-01-01 10:12:00,75.7,68.0,29.97,West,280,3.0,6.0,77,0.00,,,0.00,meteohub,2014-01-01 20:12:00,
2014-01-01 10:17:00,75.9,67.8,29.97,NW,306,2.0,6.0,76,0.00,,,0.00,meteohub,2014-01-01 20:17:00,
2014-01-01 10:22:00,76.1,67.6,29.97,WNW,285,6.0,6.0,75,0.00,,,0.00,meteohub,2014-01-01 20:22:00,
2014-01-01 10:27:00,76.3,67.8,29.97,WNW,291,3.0,6.0,75,0.00,,,0.00,meteohub,2014-01-01 20:27:00,
2014-01-01 10:32:00,76.3,67.5,29.97,West,278,4.0,6.0,74,0.00,,,0.00,meteohub,2014-01-01 20:32:00,
2014-01-01 10:37:00,76.3,67.8,29.97,West,280,5.0,7.0,75,0.00,,,0.00,meteohub,2014-01-01 20:37:00,
2014-01-01 10:42:00,76.3,68.2,29.97,WNW,283,3.0,7.0,76,0.00,,,0.00,meteohub,2014-01-01 20:42:00,
2014-01-01 10:47:00,76.6,68.5,29.97,WSW,250,4.0,7.0,76,0.00,,,0.00,meteohub,2014-01-01 20:47:00,
2014-01-01 10:52:00,76.6,68.2,29.96,WNW,285,5.0,7.0,75,0.00,,,0.00,meteohub,2014-01-01 20:52:00,
2014-01-01 10:57:00,76.5,68.0,29.96,WNW,300,6.0,6.0,75,0.00,,,0.00,meteohub,2014-01-01 20:57:00,
2014-01-01 11:02:00,76.5,68.4,29.96,West,266,5.0,6.0,76,0.00,,,0.00,meteohub,2014-01-01 21:02:00,
2014-01-01 11:07:00,76.5,68.4,29.96,WNW,296,5.0,6.0,76,0.00,,,0.00,meteohub,2014-01-01 21:07:00,
2014-01-01 11:12:00,76.5,67.6,29.96,WNW,290,4.0,6.0,74,0.00,,,0.00,meteohub,2014-01-01 21:12:00,
2014-01-01 11:17:00,76.5,68.4,29.95,West,263,3.0,7.0,76,0.00,,,0.00,meteohub,2014-01-01 21:17:00,
2014-01-01 11:22:00,76.5,68.4,29.95,WNW,286,5.0,8.0,76,0.00,,,0.00,meteohub,2014-01-01 21:22:00,
2014-01-01 11:27:00,76.6,68.5,29.94,WNW,301,3.0,8.0,76,0.00,,,0.00,meteohub,2014-01-01 21:27:00,
2014-01-01 11:32:00,76.3,68.5,29.94,WNW,286,5.0,6.0,77,0.00,,,0.00,meteohub,2014-01-01 21:32:00,
2014-01-01 11:37:00,76.5,68.7,29.94,West,275,3.0,7.0,77,0.00,,,0.00,meteohub,2014-01-01 21:37:00,
2014-01-01 11:42:00,76.3,68.5,29.94,West,280,5.0,7.0,77,0.00,,,0.00,meteohub,2014-01-01 21:42:00,
2014-01-01 11:47:00,76.3,68.5,29.94,WNW,301,4.0,7.0,77,0.00,,,0.00,meteohub,2014-01-01 21:47:00,
2014-01-01 11:52:00,76.3,68.5,29.93,NW,316,3.0,7.0,77,0.00,,,0.00,meteohub,2014-01-01 21:52:00,
2014-01-01 11:57:00,76.3,68.2,29.93,NW,309,5.0,6.0,76,0.00,,,0.00,meteohub,2014-01-01 21:57:00,
2014-01-01 12:02:00,76.5,68.4,29.93,NW,309,4.0,6.0,76,0.00,,,0.00,meteohub,2014-01-01 22:02:00,
2014-01-01 12:07:00,76.8,68.4,29.92,WNW,294,5.0,6.0,75,0.00,,,0.00,meteohub,2014-01-01 22:07:00,
2014-01-01 12:12:00,76.6,68.2,29.92,WNW,284,4.0,7.0,75,0.00,,,0.00,meteohub,2014-01-01 22:12:00,
2014-01-01 12:17:00,76.6,68.5,29.92,NW,311,3.0,7.0,76,0.00,,,0.00,meteohub,2014-01-01 22:17:00,
2014-01-01 12:22:00,76.8,68.4,29.92,WSW,238,1.0,7.0,75,0.00,,,0.00,meteohub,2014-01-01 22:22:00,
2014-01-01 12:27:00,77.0,68.5,29.91,NW,315,2.0,7.0,75,0.00,,,0.00,meteohub,2014-01-01 22:27:00,
2014-01-01 12:32:00,77.2,68.7,29.91,West,270,4.0,7.0,75,0.00,,,0.00,meteohub,2014-01-01 22:32:00,
2014-01-01 12:37:00,77.2,69.1,29.91,WNW,287,3.0,8.0,76,0.00,,,0.00,meteohub,2014-01-01 22:37:00,
2014-01-01 12:42:00,77.2,69.1,29.91,WSW,257,4.0,8.0,76,0.00,,,0.00,meteohub,2014-01-01 22:42:00,
2014-01-01 12:47:00,77.4,69.3,29.91,WNW,298,3.0,8.0,76,0.00,,,0.00,meteohub,2014-01-01 22:47:00,
2014-01-01 12:52:00,77.2,69.1,29.90,WNW,300,5.0,8.0,76,0.00,,,0.00,meteohub,2014-01-01 22:52:00,
2014-01-01 12:57:00,77.2,68.7,29.90,WNW,302,5.0,7.0,75,0.00,,,0.00,meteohub,2014-01-01 22:57:00,
2014-01-01 13:02:00,77.2,68.7,29.90,WNW,288,3.0,7.0,75,0.00,,,0.00,meteohub,2014-01-01 23:02:00,
2014-01-01 13:07:00,77.2,68.7,29.89,West,271,6.0,7.0,75,0.00,,,0.00,meteohub,2014-01-01 23:07:00,
2014-01-01 13:12:00,77.2,68.2,29.89,West,276,6.0,7.0,74,0.00,,,0.00,meteohub,2014-01-01 23:12:00,
2014-01-01 13:17:00,77.0,68.0,29.89,WSW,255,6.0,7.0,74,0.00,,,0.00,meteohub,2014-01-01 23:17:00,
2014-01-01 13:22:00,76.8,67.5,29.88,West,270,2.0,7.0,73,0.00,,,0.00,meteohub,2014-01-01 23:22:00,
2014-01-01 13:27:00,77.4,68.4,29.88,WNW,302,5.0,7.0,74,0.00,,,0.00,meteohub,2014-01-01 23:27:00,
2014-01-01 13:32:00,77.5,68.5,29.88,West,268,3.0,7.0,74,0.00,,,0.00,meteohub,2014-01-01 23:32:00,
2014-01-01 13:37:00,77.7,67.6,29.88,West,264,5.0,7.0,71,0.00,,,0.00,meteohub,2014-01-01 23:37:00,
2014-01-01 13:42:00,77.7,68.4,29.88,West,259,3.0,7.0,73,0.00,,,0.00,meteohub,2014-01-01 23:42:00,
2014-01-01 13:47:00,77.5,68.2,29.88,WSW,241,2.0,7.0,73,0.00,,,0.00,meteohub,2014-01-01 23:47:00,
2014-01-01 13:53:00,77.5,67.8,29.88,WNW,283,5.0,7.0,72,0.00,,,0.00,meteohub,2014-01-01 23:53:00,
2014-01-01 13:58:00,77.5,67.8,29.87,West,260,5.0,7.0,72,0.00,,,0.00,meteohub,2014-01-01 23:58:00,
2014-01-01 14:03:00,77.5,68.2,29.87,WNW,284,5.0,8.0,73,0.00,,,0.00,meteohub,2014-01-02 00:03:00,
2014-01-01 14:08:00,77.4,68.9,29.87,WNW,288,6.0,9.0,75,0.00,,,0.00,meteohub,2014-01-02 00:08:00,
2014-01-01 14:13:00,77.4,68.4,29.87,West,276,6.0,9.0,74,0.00,,,0.00,meteohub,2014-01-02 00:13:00,
2014-01-01 14:18:00,77.2,68.2,29.87,WNW,300,8.0,9.0,74,0.00,,,0.00,meteohub,2014-01-02 00:18:00,
2014-01-01 14:23:00,77.2,68.7,29.87,West,266,5.0,9.0,75,0.00,,,0.00,meteohub,2014-01-02 00:23:00,
2014-01-01 14:28:00,77.4,68.9,29.87,West,280,6.0,9.0,75,0.00,,,0.00,meteohub,2014-01-02 00:28:00,
2014-01-01 14:33:00,77.4,68.9,29.86,West,280,4.0,9.0,75,0.00,,,0.00,meteohub,2014-01-02 00:33:00,
2014-01-01 14:38:00,77.7,69.1,29.86,West,278,6.0,7.0,75,0.00,,,0.00,meteohub,2014-01-02 00:38:00,
2014-01-01 14:43:00,77.7,68.7,29.86,WNW,285,3.0,7.0,74,0.00,,,0.00,meteohub,2014-01-02 00:43:00,
2014-01-01 14:48:00,77.5,68.9,29.86,West,267,5.0,8.0,75,0.00,,,0.00,meteohub,2014-01-02 00:48:00,
2014-01-01 14:53:00,77.4,69.3,29.86,West,280,2.0,8.0,76,0.00,,,0.00,meteohub,2014-01-02 00:53:00,
2014-01-01 14:59:00,77.5,69.8,29.86,NW,317,7.0,8.0,77,0.00,,,0.00,meteohub,2014-01-02 00:59:00,
2014-01-01 15:04:00,77.4,68.9,29.86,West,262,5.0,7.0,75,0.00,,,0.00,meteohub,2014-01-02 01:04:00,
2014-01-01 15:09:00,77.5,69.4,29.86,West,280,2.0,7.0,76,0.00,,,0.00,meteohub,2014-01-02 01:09:00,
2014-01-01 15:14:00,77.5,69.4,29.86,West,281,5.0,7.0,76,0.00,,,0.00,meteohub,2014-01-02 01:14:00,
2014-01-01 15:19:00,77.5,69.4,29.86,WSW,253,4.0,7.0,76,0.00,,,0.00,meteohub,2014-01-02 01:19:00,
2014-01-01 15:24:00,77.5,69.4,29.86,West,266,4.0,7.0,76,0.00,,,0.00,meteohub,2014-01-02 01:24:00,
2014-01-01 15:29:00,77.5,69.4,29.86,WNW,288,4.0,7.0,76,0.00,,,0.00,meteohub,2014-01-02 01:29:00,
2014-01-01 15:34:00,77.4,69.3,29.86,WNW,300,3.0,7.0,76,0.00,,,0.00,meteohub,2014-01-02 01:34:00,
2014-01-01 15:39:00,77.2,69.4,29.86,WNW,283,3.0,6.0,77,0.00,,,0.00,meteohub,2014-01-02 01:39:00,
2014-01-01 15:44:00,77.4,69.6,29.86,West,278,4.0,6.0,77,0.00,,,0.00,meteohub,2014-01-02 01:44:00,
2014-01-01 15:49:00,77.4,68.9,29.86,West,259,1.0,7.0,75,0.00,,,0.00,meteohub,2014-01-02 01:49:00,
2014-01-01 15:55:00,77.4,68.9,29.86,WNW,298,3.0,7.0,75,0.00,,,0.00,meteohub,2014-01-02 01:55:00,
2014-01-01 16:00:00,77.2,68.7,29.86,WNW,291,2.0,7.0,75,0.00,,,0.00,meteohub,2014-01-02 02:00:00,
2014-01-01 16:05:00,77.4,69.3,29.86,WSW,242,3.0,6.0,76,0.00,,,0.00,meteohub,2014-01-02 02:05:00,
2014-01-01 16:10:00,77.5,68.9,29.86,WNW,300,4.0,7.0,75,0.00,,,0.00,meteohub,2014-01-02 02:10:00,
2014-01-01 16:15:00,77.5,69.4,29.86,West,278,2.0,7.0,76,0.00,,,0.00,meteohub,2014-01-02 02:15:00,
2014-01-01 16:20:00,77.7,69.1,29.86,WSW,252,3.0,7.0,75,0.00,,,0.00,meteohub,2014-01-02 02:20:00,
2014-01-01 16:25:00,77.9,69.3,29.86,West,280,3.0,6.0,75,0.00,,,0.00,meteohub,2014-01-02 02:25:00,
2014-01-01 16:30:00,77.7,69.1,29.86,West,259,3.0,5.0,75,0.00,,,0.00,meteohub,2014-01-02 02:30:00,
2014-01-01 16:35:00,77.5,68.9,29.86,WNW,300,4.0,5.0,75,0.00,,,0.00,meteohub,2014-01-02 02:35:00,
2014-01-01 16:40:00,77.5,69.4,29.86,West,264,2.0,7.0,76,0.00,,,0.00,meteohub,2014-01-02 02:40:00,
2014-01-01 16:45:00,77.5,69.4,29.86,SW,219,2.0,7.0,76,0.00,,,0.00,meteohub,2014-01-02 02:45:00,
2014-01-01 16:50:00,77.7,69.1,29.87,SW,218,1.0,5.0,75,0.00,,,0.00,meteohub,2014-01-02 02:50:00,
2014-01-01 16:55:00,77.9,69.3,29.87,West,266,1.0,4.0,75,0.00,,,0.00,meteohub,2014-01-02 02:55:00,
2014-01-01 17:00:00,77.7,69.6,29.87,West,259,1.0,5.0,76,0.00,,,0.00,meteohub,2014-01-02 03:00:00,
2014-01-01 17:05:00,77.4,69.3,29.88,West,273,2.0,5.0,76,0.00,,,0.00,meteohub,2014-01-02 03:05:00,
2014-01-01 17:10:00,77.4,69.6,29.88,West,260,1.0,5.0,77,0.00,,,0.00,meteohub,2014-01-02 03:10:00,
2014-01-01 17:16:00,77.2,69.8,29.88,SW,226,2.0,5.0,78,0.00,,,0.00,meteohub,2014-01-02 03:16:00,
2014-01-01 17:21:00,77.2,69.8,29.88,SW,224,1.0,4.0,78,0.00,,,0.00,meteohub,2014-01-02 03:21:00,
2014-01-01 17:26:00,77.0,69.6,29.88,WNW,287,2.0,4.0,78,0.00,,,0.00,meteohub,2014-01-02 03:26:00,
2014-01-01 17:31:00,77.0,69.6,29.88,WNW,290,1.0,3.0,78,0.00,,,0.00,meteohub,2014-01-02 03:31:00,
2014-01-01 17:36:00,76.8,69.4,29.88,West,270,1.0,3.0,78,0.00,,,0.00,meteohub,2014-01-02 03:36:00,
2014-01-01 17:41:00,76.6,69.3,29.88,WSW,250,0.0,3.0,78,0.00,,,0.00,meteohub,2014-01-02 03:41:00,
2014-01-01 17:46:00,76.5,69.4,29.88,WSW,252,0.0,2.0,79,0.00,,,0.00,meteohub,2014-01-02 03:46:00,
2014-01-01 17:51:00,76.3,69.3,29.88,SW,228,1.0,2.0,79,0.00,,,0.00,meteohub,2014-01-02 03:51:00,
2014-01-01 17:56:00,75.9,69.3,29.88,SSW,210,0.0,2.0,80,0.00,,,0.00,meteohub,2014-01-02 03:56:00,
2014-01-01 18:01:00,75.6,68.9,29.89,SSW,209,0.0,2.0,80,0.00,,,0.00,meteohub,2014-01-02 04:01:00,
2014-01-01 18:06:00,75.4,69.1,29.89,SSW,203,0.0,1.0,81,0.00,,,0.00,meteohub,2014-01-02 04:06:00,
2014-01-01 18:11:00,75.0,68.7,29.89,SSE,167,0.0,1.0,81,0.00,,,0.00,meteohub,2014-01-02 04:11:00,
2014-01-01 18:16:00,74.8,68.9,29.89,East,101,1.0,1.0,82,0.00,,,0.00,meteohub,2014-01-02 04:16:00,
2014-01-01 18:21:00,74.7,68.7,29.89,East,98,0.0,1.0,82,0.00,,,0.00,meteohub,2014-01-02 04:21:00,
2014-01-01 18:26:00,74.3,68.4,29.90,East,99,0.0,1.0,82,0.00,,,0.00,meteohub,2014-01-02 04:26:00,
2014-01-01 18:31:00,74.1,68.5,29.90,East,98,0.0,1.0,83,0.00,,,0.00,meteohub,2014-01-02 04:31:00,
2014-01-01 18:37:00,73.9,68.4,29.90,East,99,1.0,1.0,83,0.00,,,0.00,meteohub,2014-01-02 04:37:00,
2014-01-01 18:42:00,73.8,68.4,29.90,East,98,0.0,1.0,83,0.00,,,0.00,meteohub,2014-01-02 04:42:00,
2014-01-01 18:47:00,73.4,68.0,29.91,East,98,1.0,1.0,83,0.00,,,0.00,meteohub,2014-01-02 04:47:00,
2014-01-01 18:52:00,72.9,67.5,29.91,East,83,1.0,2.0,83,0.00,,,0.00,meteohub,2014-01-02 04:52:00,
2014-01-01 18:57:00,72.7,67.3,29.91,East,83,2.0,2.0,83,0.00,,,0.00,meteohub,2014-01-02 04:57:00,
2014-01-01 19:01:00,72.5,67.1,29.91,East,96,1.0,2.0,83,0.00,,,0.00,meteohub,2014-01-02 05:01:00,
2014-01-01 19:02:00,72.3,66.9,29.91,East,96,1.0,2.0,83,0.00,,,0.00,meteohub,2014-01-02 05:02:00,
2014-01-01 19:06:00,72.3,66.9,29.91,East,100,3.0,3.0,83,0.00,,,0.00,meteohub,2014-01-02 05:06:00,
2014-01-01 19:08:00,72.3,66.9,29.91,ESE,102,2.0,3.0,83,0.00,,,0.00,meteohub,2014-01-02 05:08:00,
2014-01-01 19:13:00,72.1,66.4,29.91,ENE,77,2.0,3.0,82,0.00,,,0.00,meteohub,2014-01-02 05:13:00,
2014-01-01 19:19:00,72.0,65.8,29.92,East,80,1.0,3.0,81,0.00,,,0.00,meteohub,2014-01-02 05:19:00,
2014-01-01 19:24:00,71.8,65.3,29.92,ESE,103,1.0,3.0,80,0.00,,,0.00,meteohub,2014-01-02 05:24:00,
2014-01-01 19:29:00,71.6,64.8,29.91,East,82,2.0,3.0,79,0.00,,,0.00,meteohub,2014-01-02 05:29:00,
2014-01-01 19:34:00,71.4,64.6,29.92,East,82,2.0,3.0,79,0.00,,,0.00,meteohub,2014-01-02 05:34:00,
2014-01-01 19:39:00,71.4,64.2,29.92,ENE,78,2.0,3.0,78,0.00,,,0.00,meteohub,2014-01-02 05:39:00,
2014-01-01 19:44:00,71.4,64.2,29.92,East,86,1.0,3.0,78,0.00,,,0.00,meteohub,2014-01-02 05:44:00,
2014-01-01 19:49:00,71.4,64.2,29.92,ENE,73,1.0,3.0,78,0.00,,,0.00,meteohub,2014-01-02 05:49:00,
2014-01-01 19:54:00,71.4,64.2,29.92,East,94,2.0,3.0,78,0.00,,,0.00,meteohub,2014-01-02 05:54:00,
2014-01-01 19:59:00,71.4,63.9,29.92,ESE,103,2.0,3.0,77,0.00,,,0.00,meteohub,2014-01-02 05:59:00,
2014-01-01 20:04:00,71.6,64.4,29.92,ENE,77,1.0,3.0,78,0.00,,,0.00,meteohub,2014-01-02 06:04:00,
2014-01-01 20:09:00,71.6,64.4,29.92,ENE,75,2.0,3.0,78,0.00,,,0.00,meteohub,2014-01-02 06:09:00,
2014-01-01 20:14:00,71.4,64.2,29.92,East,92,1.0,3.0,78,0.00,,,0.00,meteohub,2014-01-02 06:14:00,
2014-01-01 20:19:00,71.2,64.0,29.93,East,81,1.0,3.0,78,0.00,,,0.00,meteohub,2014-01-02 06:19:00,
2014-01-01 20:24:00,71.2,64.0,29.93,ENE,75,1.0,3.0,78,0.00,,,0.00,meteohub,2014-01-02 06:24:00,
2014-01-01 20:29:00,71.4,64.6,29.93,ESE,102,2.0,3.0,79,0.00,,,0.00,meteohub,2014-01-02 06:29:00,
2014-01-01 20:34:00,71.4,64.6,29.93,East,97,3.0,3.0,79,0.00,,,0.00,meteohub,2014-01-02 06:34:00,
2014-01-01 20:39:00,71.4,64.6,29.93,East,100,3.0,4.0,79,0.00,,,0.00,meteohub,2014-01-02 06:39:00,
2014-01-01 20:45:00,71.4,64.6,29.93,ESE,112,1.0,4.0,79,0.00,,,0.00,meteohub,2014-01-02 06:45:00,
2014-01-01 20:50:00,71.6,64.4,29.93,East,96,1.0,4.0,78,0.00,,,0.00,meteohub,2014-01-02 06:50:00,
2014-01-01 20:55:00,71.8,64.6,29.92,East,81,0.0,4.0,78,0.00,,,0.00,meteohub,2014-01-02 06:55:00,
2014-01-01 21:00:00,71.8,64.6,29.93,ENE,77,0.0,4.0,78,0.00,,,0.00,meteohub,2014-01-02 07:00:00,
2014-01-01 21:05:00,71.8,64.6,29.93,ENE,65,2.0,3.0,78,0.00,,,0.00,meteohub,2014-01-02 07:05:00,
2014-01-01 21:10:00,71.8,64.2,29.93,ENE,73,2.0,4.0,77,0.00,,,0.00,meteohub,2014-01-02 07:10:00,
2014-01-01 21:15:00,71.8,64.2,29.93,ESE,103,2.0,6.0,77,0.00,,,0.00,meteohub,2014-01-02 07:15:00,
2014-01-01 21:20:00,71.8,63.9,29.93,East,91,0.0,6.0,76,0.00,,,0.00,meteohub,2014-01-02 07:20:00,
2014-01-01 21:25:00,71.6,64.0,29.93,East,94,2.0,6.0,77,0.00,,,0.00,meteohub,2014-01-02 07:25:00,
2014-01-01 21:31:00,71.4,63.5,29.93,ENE,71,3.0,3.0,76,0.00,,,0.00,meteohub,2014-01-02 07:31:00,
2014-01-01 21:36:00,71.2,63.3,29.93,ENE,69,1.0,3.0,76,0.00,,,0.00,meteohub,2014-01-02 07:36:00,
2014-01-01 21:41:00,71.2,63.3,29.93,ENE,77,2.0,3.0,76,0.00,,,0.00,meteohub,2014-01-02 07:41:00,
2014-01-01 21:46:00,71.1,63.5,29.93,East,84,2.0,3.0,77,0.00,,,0.00,meteohub,2014-01-02 07:46:00,
2014-01-01 21:51:00,70.9,63.3,29.93,East,100,3.0,3.0,77,0.00,,,0.00,meteohub,2014-01-02 07:51:00,
2014-01-01 21:56:00,70.9,63.7,29.93,East,84,2.0,3.0,78,0.00,,,0.00,meteohub,2014-01-02 07:56:00,
2014-01-01 22:01:00,70.9,63.3,29.93,East,85,2.0,3.0,77,0.00,,,0.00,meteohub,2014-01-02 08:01:00,
2014-01-01 22:06:00,70.9,63.3,29.93,ENE,72,2.0,3.0,77,0.00,,,0.00,meteohub,2014-01-02 08:06:00,
2014-01-01 22:11:00,70.9,63.7,29.93,ENE,72,2.0,3.0,78,0.00,,,0.00,meteohub,2014-01-02 08:11:00,
2014-01-01 22:16:00,70.9,63.3,29.93,East,85,3.0,4.0,77,0.00,,,0.00,meteohub,2014-01-02 08:16:00,
2014-01-01 22:21:00,70.9,63.0,29.93,East,80,3.0,4.0,76,0.00,,,0.00,meteohub,2014-01-02 08:21:00,
2014-01-01 22:26:00,70.9,63.0,29.92,East,80,2.0,4.0,76,0.00,,,0.00,meteohub,2014-01-02 08:26:00,
2014-01-01 22:31:00,70.9,63.0,29.93,East,80,2.0,4.0,76,0.00,,,0.00,meteohub,2014-01-02 08:31:00,
2014-01-01 22:36:00,70.7,62.8,29.93,East,91,3.0,4.0,76,0.00,,,0.00,meteohub,2014-01-02 08:36:00,
2014-01-01 22:41:00,70.5,62.6,29.92,East,82,2.0,4.0,76,0.00,,,0.00,meteohub,2014-01-02 08:41:00,
2014-01-01 22:47:00,70.7,63.1,29.92,ENE,77,2.0,4.0,77,0.00,,,0.00,meteohub,2014-01-02 08:47:00,
2014-01-01 22:52:00,70.7,63.1,29.92,East,89,3.0,4.0,77,0.00,,,0.00,meteohub,2014-01-02 08:52:00,
2014-01-01 22:57:00,70.7,63.5,29.92,East,87,3.0,4.0,78,0.00,,,0.00,meteohub,2014-01-02 08:57:00,
2014-01-01 23:02:00,70.5,63.3,29.92,East,93,3.0,4.0,78,0.00,,,0.00,meteohub,2014-01-02 09:02:00,
2014-01-01 23:07:00,70.5,63.3,29.92,East,90,2.0,4.0,78,0.00,,,0.00,meteohub,2014-01-02 09:07:00,
2014-01-01 23:12:00,70.9,63.7,29.92,East,83,2.0,4.0,78,0.00,,,0.00,meteohub,2014-01-02 09:12:00,
2014-01-01 23:17:00,70.9,63.7,29.92,East,86,3.0,4.0,78,0.00,,,0.00,meteohub,2014-01-02 09:17:00,
2014-01-01 23:22:00,70.9,63.7,29.92,East,86,2.0,4.0,78,0.00,,,0.00,meteohub,2014-01-02 09:22:00,
2014-01-01 23:27:00,70.7,63.5,29.92,East,83,2.0,4.0,78,0.00,,,0.00,meteohub,2014-01-02 09:27:00,
2014-01-01 23:32:00,70.5,63.3,29.92,East,82,3.0,4.0,78,0.00,,,0.00,meteohub,2014-01-02 09:32:00,
2014-01-01 23:37:00,70.5,63.3,29.91,ESE,102,3.0,4.0,78,0.00,,,0.00,meteohub,2014-01-02 09:37:00,
2014-01-01 23:42:00,70.5,63.3,29.91,East,89,3.0,4.0,78,0.00,,,0.00,meteohub,2014-01-02 09:42:00,
2014-01-01 23:47:00,70.5,63.3,29.91,East,89,3.0,4.0,78,0.00,,,0.00,meteohub,2014-01-02 09:47:00,
2014-01-01 23:52:00,70.3,63.1,29.91,East,87,3.0,4.0,78,0.00,,,0.00,meteohub,2014-01-02 09:52:00,
2014-01-01 23:57:00,70.3,63.1,29.91,East,90,3.0,4.0,78,0.00,,,0.00,meteohub,2014-01-02 09:57:00,